KUIPER-00532

导读

KUIPER-00532(NORAD编号69604)是美国亚马逊公司柯伊伯(Project Kuiper)低轨互联网星座的组网卫星,大概率为2025年9月第五次发射入轨的27颗组网星之一,发射由ULA的Atlas V火箭自卡纳维拉尔角执行,初始部署高度465公里,后续抬升至590-630公里的运营轨道。该星配备相控阵天线与星间激光链路,在轨运行状态稳定,主要承担全球欠接入区域的高速宽带通信任务,是亚马逊推进3236颗卫星星座组网、追赶FCC要求2026年7月完成半数卫星部署节点的重要组成部分。

Basic Information
目录编号:
69604
目录名称:
KUIPER-00532
国际标识:
2026-140N
轨道中心:
EARTH
卫星名称:
KUIPER-00532
卫星全名:
KUIPER-00532
卫星状态:
在轨 (已飞行70 天)
发射日期:
2026-06-17 UTC
国别 :
美国 (US)
星等 :
--
Orbit Information
数据来源 国际轨道数据
星历时间: 2026-08-26T05:45:00+0800
13小时前
查看轨道信息
半长轴: 6832.51km
偏心率: 0.0004977
轨道倾角: 51.880°
近地点辐角 181.773°
升交点赤经 62.004°
平近点角 178.324°
近地点: 450.972km
远地点: 457.774km
周期: 93.676分钟
每日圈数: 15.37207
Detailed Information
使用方式:
暂无
2D Orbit Map
3D Orbit Map
Orbit Altitude Analysis Chart
Orbit Inclination Analysis Chart
Orbit Comprehensive Analysis Chart
View Comprehensive Chart